View from above orbital plane
|
View from above satellite
|
Ground track
|
The orbit data is extracted from the following two-line orbital elements,
1 17528U 87018B 21059.44261514 .00000070 00000-0 24632-4 0 9999
2 17528 97.4023 244.3401 0152277 20.4042 340.3150 14.51033076775346
Epoch (UTC): | 28 February 2021 10:37:21 |
Eccentricity: | 0.0152277 |
inclination: | 97.4023° |
perigee height: | 614 km |
apogee height: | 830 km |
right ascension of ascending node: | 244.3401° |
argument of perigee: | 20.4042° |
revolutions per day: | 14.51033076 |
mean anomaly at epoch: | 340.3150° |
orbit number at epoch: | 77534 |
The dashed part of the orbit path shows where the satellite is in the earth's shadow,
|
|